Location: Newark
(25.7507°S, 31.4676°E)
Time: 20:46:02
(UTC+00:00)

Hubble Space Telescope - Pass Details

Date: 20 January 2020
Orbit: 536 x 540 km, 28.5° (Epoch: 23 February)

Event Time Altitude Azimuth Distance (km) Brightness Sun altitude
Exits shadow 00:42:40 16° 83° (E) 1,470 3.3 -30.1°
Drops below altitude 10° 00:43:30 10° 82° (E) 1,790 3.8 -30.0°
Sets 00:45:46 0° 81° (E) 2,679 4.8 -29.6°
